Погода в Виноградове

Украина / Закарпатская область     48°08′22″N   23°02′18″E
темп.,
°C
ветер,
м/с
пор.,
м/с
влажн.,
%
обл.,
%
осадки,
мм/ч
давл.,
гПа
погр.,
м
15 мая, сб
сб1500:00+10ююз2395100 0.4 101083
03:00+10ю1297100 0.6 101190
06:00+10ююв129895 0.3 1011103
09:00+11вюв129289 0.3 1012280
12:00+15юв227770 0.1 1012847
15:00+18юв126442 0.3 10111195
18:00+18ю12665 0.4 1010982
21:00+13ссв118126 0.4 100911
16 мая, вс
вс1600:00+11всв228868 0.0 100913
03:00+11всв2286100 0.0 100917
06:00+10всв1189100 0.1 100911
09:00+14вюв117993 0.2 1009231
12:00+17ююз3479100 1.3 1009463
15:00+14зюз1193100 5.6 100937
18:00+13вюв2396100 3.8 1008159
21:00+12юв2292100 5.3 100824
17 мая, пн
пн1700:00+12вюв2294100 0.2 100937
03:00+11вюв229559 0.6 100869
06:00+10ююв229728 0.0 100945
09:00+13ю228949 0.1 1009409
12:00+17ю237195 0.3 10081045
15:00+18юз3465100 0.4 10071195
18:00+13юз2399100 4.9 1007180
21:00+12вюв1198100 9.3 100725
18 мая, вт
вт1800:00+12зсз139989 3.6 1008187
03:00+11з369883 3.6 1008371
06:00+9юз229988 0.0 1009102
09:00+11ю2291100 0.0 1011383
12:00+13ю3483100 0.6 1011721
15:00+16зюз357092 3.1 10111229
18:00+16ююз13693 1.6 1011820
21:00+11юв228636 3.4 101213
19 мая, ср
ср1900:00+8в22924 0.5 101312
03:00+8всв22935 0.6 101318
06:00+7св229382 0.0 101216
09:00+11сз1186100 0.2 1014285
12:00+16сз1266100 0.0 1013987
15:00+18з3359100 0.1 10111313
18:00+16зсз4677100 1.8 1011281
21:00+12всв2386100 3.4 101255